This demonstration page uses our WeatherBlox Daily Observations layout. Learn more.

Left ArrowRight Arrow

39.51506, -84.39828

Hourly Observations for May 2, 2017

Temp ( °F °C ) Dew Point ( °F °C ) Humidity (%) Winds ( mph kmh ) Pressure ( in mb ) Visibility ( mi km ) Precip ( " mm )
12:15 am 00:15 Cloudy 55 12.5 42 5.7 64 64 SSW 10 17 29.77 1008 10 16 N/A
12:35 am 00:35 Cloudy 55 12.5 42 5.3 62 62 SSW 15 24 29.77 1008 10 16 N/A
12:55 am 00:55 Cloudy with Drizzle 52 11 42 5.3 68 68 SSW 17 28 29.77 1008 10 16 N/A
1:15 am 01:15 Cloudy with Light Rain 52 11 42 5.7 70 70 SSW 14 22 29.77 1008 10 16 N/A
1:35 am 01:35 Cloudy 52 11 41 5.2 68 68 SSW 10 17 29.74 1007 10 16 N/A
1:55 am 01:55 Cloudy 52 11 40 4.5 65 65 SSW 16 26 29.74 1007 10 16 N/A
2:15 am 02:15 Cloudy with Rain 49 9.6 40 4.6 71 71 SW 17 28 29.74 1007 10 16 N/A
2:35 am 02:35 Cloudy 49 9.6 42 5.5 76 76 SW 12 19 29.74 1007 10 16 N/A
2:55 am 02:55 Cloudy 49 9.6 41 5.2 74 74 SSW 15 24 29.74 1007 10 16 N/A
3:15 am 03:15 Cloudy 49 9.6 39 3.9 68 68 SW 18 30 29.74 1007 10 16 N/A
3:35 am 03:35 Cloudy 49 9.6 39 4 68 68 SW 17 28 29.74 1007 10 16 N/A
3:55 am 03:55 Cloudy 49 9.6 39 4 68 68 SW 13 20 29.74 1007 10 16 N/A
4:15 am 04:15 Cloudy 49 9.6 39 4 68 68 SSW 12 19 29.74 1007 10 16 N/A
4:35 am 04:35 Cloudy 49 9.6 39 4.1 69 69 SSW 15 24 29.74 1007 10 16 N/A
4:55 am 04:55 Cloudy with Light Rain 49 9.6 40 4.5 71 71 WSW 21 33 29.77 1008 7 11 N/A
5:15 am 05:15 Cloudy 49 9.6 41 4.8 72 72 WSW 13 20 29.77 1008 10 16 N/A
5:35 am 05:35 Cloudy 49 9.6 41 5.2 74 74 WSW 8 13 29.77 1008 10 16 N/A
5:55 am 05:55 Cloudy 49 9.6 40 4.5 71 71 SW 12 19 29.77 1008 10 16 N/A
6:15 am 06:15 Cloudy 49 9.6 39 4.1 69 69 WSW 13 20 29.77 1008 10 16 N/A
6:35 am 06:35 Cloudy with Light Snow 49 9.6 41 5.1 74 74 W 13 20 29.80 1009 7 11 N/A
6:55 am 06:55 Cloudy 49 9.6 42 5.7 77 77 SW 6 9 29.77 1008 10 16 N/A
7:15 am 07:15 Cloudy 49 9.6 41 4.8 72 72 SW 10 17 29.77 1008 10 16 N/A
7:35 am 07:35 Cloudy 49 9.6 37 2.7 62 62 SW 14 22 29.80 1009 10 16 N/A
7:55 am 07:55 Cloudy 50 10.2 36 2.3 58 58 SW 15 24 29.80 1009 10 16 N/A
8:15 am 08:15 Mostly Cloudy 51 10.6 35 1.8 55 55 SW 17 28 29.80 1009 10 16 N/A
8:35 am 08:35 Partly Cloudy 52 11.1 36 2.4 55 55 SW 22 35 29.80 1009 10 16 N/A
8:55 am 08:55 Mostly Cloudy 52 11 37 2.6 56 56 WSW 21 33 29.80 1009 10 16 N/A
9:15 am 09:15 Mostly Cloudy 54 12.3 38 3.4 55 55 WSW 24 39 29.83 1010 10 16 N/A
9:35 am 09:35 Partly Cloudy 55 12.5 37 2.9 52 52 SW 18 30 29.83 1010 10 16 N/A
9:55 am 09:55 Sunny 55 12.5 37 2.5 51 51 SW 16 26 29.83 1010 10 16 N/A
10:15 am 10:15 Sunny 55 12.8 35 1.7 47 47 WSW 22 35 29.83 1010 10 16 N/A
10:35 am 10:35 Sunny 57 13.8 35 1.7 44 44 WSW 21 33 29.80 1009 10 16 N/A
10:55 am 10:55 Sunny 57 13.8 33 0.6 41 41 WSW 20 31 29.80 1009 10 16 N/A
11:15 am 11:15 Sunny 59 15.1 33 0.5 37 37 WSW 22 35 29.80 1009 10 16 N/A
11:35 am 11:35 Sunny 60 15.3 34 1 38 38 WSW 20 31 29.80 1009 10 16 N/A
11:55 am 11:55 Sunny 60 15.3 31 -0.3 35 35 WSW 25 41 29.80 1009 10 16 N/A
12:15 pm 12:15 Sunny 61 16 30 -1 31 31 SW 25 41 29.80 1009 10 16 N/A
12:35 pm 12:35 Sunny 61 16.1 30 -1.1 31 31 SW 18 30 29.83 1010 10 16 N/A
12:55 pm 12:55 Partly Cloudy 61 16.2 32 undefined 33 33 SW 16 26 29.83 1010 10 16 N/A
1:15 pm 13:15 Mostly Cloudy 62 16.6 31 -0.4 32 32 SW 21 33 29.83 1010 10 16 N/A
1:35 pm 13:35 Mostly Cloudy 61 16.2 30 -1 31 31 WSW 22 35 29.83 1010 10 16 N/A
1:55 pm 13:55 Cloudy 62 16.6 31 -0.6 31 31 WSW 16 26 29.83 1010 10 16 N/A
2:15 pm 14:15 Mostly Cloudy 62 16.6 32 0.2 33 33 WSW 15 24 29.83 1010 10 16 N/A
2:35 pm 14:35 Mostly Cloudy 64 18 33 0.6 31 31 SW 24 39 29.83 1010 10 16 N/A
2:55 pm 14:55 Mostly Cloudy 63 17 34 0.9 34 34 SW 17 28 29.83 1010 10 16 N/A
3:15 pm 15:15 Cloudy 64 17.6 34 1.1 33 33 WSW 23 37 29.83 1010 10 16 N/A
3:35 pm 15:35 Mostly Cloudy 64 17.8 32 -0.1 30 30 WSW 23 37 29.83 1010 10 16 N/A
3:55 pm 15:55 Partly Cloudy 64 17.7 33 0.3 31 31 WSW 26 43 29.83 1010 10 16 N/A
4:15 pm 16:15 Mostly Cloudy 63 17.3 34 1.3 34 34 WSW 14 22 29.83 1010 10 16 N/A
4:35 pm 16:35 Cloudy 64 17.7 34 1.3 33 33 WSW 20 31 29.83 1010 10 16 N/A
4:55 pm 16:55 Cloudy 64 17.9 32 undefined 30 30 WSW 22 35 29.83 1010 10 16 N/A
5:15 pm 17:15 Cloudy 63 17.3 31 -0.8 29 29 WSW 23 37 29.83 1010 10 16 N/A
5:35 pm 17:35 Cloudy 63 17 31 -0.8 30 30 WSW 17 28 29.83 1010 10 16 N/A
5:55 pm 17:55 Cloudy 62 16.9 30 -1 30 30 WSW 15 24 29.85 1011 10 16 N/A
6:15 pm 18:15 Cloudy 62 16.6 33 0.6 34 34 W 12 19 29.85 1011 10 16 N/A
6:35 pm 18:35 Cloudy 62 16.6 34 1 35 35 W 13 20 29.85 1011 10 16 N/A
6:55 pm 18:55 Mostly Cloudy 60 15.7 37 2.9 42 42 NW 14 22 29.88 1012 10 16 N/A
7:15 pm 19:15 Mostly Cloudy 57 13.8 39 4 52 52 NW 12 19 29.91 1013 10 16 N/A
7:35 pm 19:35 Mostly Cloudy 57 13.8 39 3.9 52 52 NW 10 17 29.94 1014 10 16 N/A
7:55 pm 19:55 Partly Cloudy 57 13.8 39 3.9 52 52 NW 10 17 29.94 1014 10 16 N/A
8:15 pm 20:15 Partly Cloudy 55 12.5 38 3.2 53 53 NW 10 17 29.94 1014 10 16 N/A
8:35 pm 20:35 Partly Cloudy 55 12.5 38 3.5 55 55 NW 8 13 29.97 1015 10 16 N/A
8:55 pm 20:55 Clear 55 12.5 39 4 56 56 WNW 8 13 29.97 1015 10 16 N/A
9:15 pm 21:15 Clear 55 12.5 39 3.8 56 56 WNW 7 11 29.97 1015 10 16 N/A
9:35 pm 21:35 Clear 52 11 37 2.7 57 57 NW 5 7 30.00 1016 10 16 N/A
9:55 pm 21:55 Clear 51 10.6 37 2.5 58 58 WNW 5 7 30.00 1016 10 16 N/A
10:15 pm 22:15 Clear 50 10.2 36 2 57 57 WNW 5 7 30.00 1016 10 16 N/A
10:35 pm 22:35 Mostly Cloudy 51 10.5 36 2.3 57 57 WNW 6 9 30.00 1016 10 16 N/A
10:55 pm 22:55 Cloudy 52 11 36 2 54 54 WNW 6 9 30.03 1017 10 16 N/A
11:15 pm 23:15 Cloudy 55 12.5 35 1.8 48 48 WNW 8 13 30.03 1017 10 16 N/A
11:35 pm 23:35 Cloudy 55 12.5 35 1.9 49 49 W 7 11 30.03 1017 10 16 N/A
11:55 pm 23:55 Cloudy 55 12.5 35 1.9 49 49 W 7 11 30.03 1017 10 16 N/A

Powered by AerisWeather